• Em Portugal
  • Lista de países
  • Para 7 dias
  • Temperatura da água
  • Mapas de satélite
  • Mapa do tempo
  • Widgets de tempo
  • user-avatar
    Iniciar Sessão

    Previsão horária em Tsumeb

    Hoje, 20 Outubro, Sexta-feira

    Tempo Temperatura Precipitação Vento Pressão Humidade
    00:00 +27°C° 0 mm 4 m/s 654 mmHg 11%
    01:00 +26°C° 0 mm 3 m/s 654 mmHg 12%
    02:00 +26°C° 0 mm 3 m/s 653 mmHg 12%
    03:00 +26°C° 0 mm 4 m/s 653 mmHg 13%
    04:00 +25°C° 0 mm 4 m/s 653 mmHg 13%
    05:00 +26°C° 0 mm 4 m/s 654 mmHg 13%
    06:00 +27°C° 0 mm 4 m/s 654 mmHg 12%
    07:00 +28°C° 0 mm 4 m/s 655 mmHg 12%
    08:00 +32°C° 0 mm 4 m/s 655 mmHg 11%
    09:00 +34°C° 0 mm 4 m/s 656 mmHg 10%
    10:00 +36°C° 0 mm 4 m/s 656 mmHg 10%
    11:00 +37°C° 0 mm 4 m/s 656 mmHg 9%
    12:00 +38°C° 0 mm 3 m/s 656 mmHg 9%
    13:00 +39°C° 0 mm 3 m/s 656 mmHg 9%
    14:00 +39°C° 0 mm 3 m/s 655 mmHg 9%
    15:00 +38°C° 0 mm 3 m/s 655 mmHg 10%
    16:00 +38°C° 0 mm 4 m/s 654 mmHg 10%
    17:00 +37°C° 0 mm 3 m/s 654 mmHg 11%
    18:00 +35°C° 0 mm 3 m/s 655 mmHg 12%
    19:00 +34°C° 0 mm 3 m/s 655 mmHg 12%
    20:00 +33°C° 0 mm 4 m/s 655 mmHg 13%
    21:00 +32°C° 0 mm 5 m/s 655 mmHg 13%
    22:00 +30°C° 0 mm 6 m/s 656 mmHg 13%
    23:00 +29°C° 0 mm 6 m/s 655 mmHg 13%

    Amanhã, 21 Outubro, Sábado

    Tempo Temperatura Precipitação Vento Pressão Humidade
    00:00 +28°C° 0 mm 5 m/s 655 mmHg 13%
    01:00 +28°C° 0 mm 5 m/s 655 mmHg 13%
    02:00 +27°C° 0 mm 5 m/s 654 mmHg 13%
    03:00 +26°C° 0 mm 4 m/s 654 mmHg 13%
    04:00 +26°C° 0 mm 4 m/s 654 mmHg 14%
    05:00 +27°C° 0 mm 4 m/s 655 mmHg 13%
    06:00 +28°C° 0 mm 4 m/s 655 mmHg 12%
    07:00 +29°C° 0 mm 4 m/s 656 mmHg 11%
    08:00 +32°C° 0 mm 4 m/s 656 mmHg 9%
    09:00 +34°C° 0 mm 4 m/s 657 mmHg 8%
    10:00 +36°C° 0 mm 4 m/s 657 mmHg 7%
    11:00 +37°C° 0 mm 3 m/s 656 mmHg 7%
    12:00 +38°C° 0 mm 2 m/s 656 mmHg 7%
    13:00 +39°C° 0 mm 1 m/s 655 mmHg 8%
    14:00 +39°C° 0 mm 1 m/s 655 mmHg 7%
    15:00 +39°C° 0 mm 1 m/s 654 mmHg 7%
    16:00 +39°C° 0 mm 1 m/s 654 mmHg 7%
    17:00 +38°C° 0 mm 2 m/s 654 mmHg 8%
    18:00 +37°C° 0 mm 2 m/s 654 mmHg 8%
    19:00 +36°C° 0 mm 3 m/s 655 mmHg 9%
    20:00 +35°C° 0 mm 3 m/s 655 mmHg 10%
    21:00 +35°C° 0 mm 3 m/s 655 mmHg 11%
    22:00 +34°C° 0 mm 3 m/s 656 mmHg 12%
    23:00 +33°C° 0,1 mm 4 m/s 655 mmHg 13%

    Depois de amanhã, 22 Outubro, Domingo

    Tempo Temperatura Precipitação Vento Pressão Humidade
    00:00 +32°C° 0,1 mm 4 m/s 655 mmHg 13%
    01:00 +32°C° 0,1 mm 4 m/s 655 mmHg 14%
    02:00 +30°C° 0,2 mm 5 m/s 655 mmHg 14%
    03:00 +29°C° 0,2 mm 5 m/s 655 mmHg 15%
    04:00 +29°C° 0,2 mm 6 m/s 654 mmHg 15%
    05:00 +29°C° 0,2 mm 6 m/s 655 mmHg 18%
    06:00 +29°C° 0,2 mm 5 m/s 656 mmHg 20%
    07:00 +30°C° 0,2 mm 5 m/s 657 mmHg 23%
    08:00 +32°C° 0,1 mm 5 m/s 657 mmHg 23%
    09:00 +34°C° 0,1 mm 5 m/s 657 mmHg 23%
    10:00 +35°C° 0,1 mm 5 m/s 657 mmHg 23%
    11:00 +36°C° 0 mm 5 m/s 657 mmHg 21%
    12:00 +37°C° 0 mm 4 m/s 656 mmHg 19%
    13:00 +38°C° 0 mm 4 m/s 656 mmHg 17%
    14:00 +37°C° 0,1 mm 4 m/s 655 mmHg 19%
    15:00 +37°C° 0,1 mm 4 m/s 655 mmHg 20%
    16:00 +36°C° 0,1 mm 4 m/s 654 mmHg 21%
    17:00 +34°C° 0,3 mm 5 m/s 655 mmHg 25%
    18:00 +33°C° 0,3 mm 6 m/s 655 mmHg 30%
    19:00 +30°C° 0,3 mm 7 m/s 655 mmHg 35%
    20:00 +29°C° 0,4 mm 5 m/s 655 mmHg 36%
    21:00 +29°C° 0,4 mm 4 m/s 656 mmHg 38%
    22:00 +28°C° 0,4 mm 3 m/s 656 mmHg 40%
    23:00 +28°C° 0 mm 3 m/s 655 mmHg 41%

    23 Outubro, Segunda-feira

    Tempo Temperatura Precipitação Vento Pressão Humidade
    00:00 +28°C° 0 mm 4 m/s 655 mmHg 42%
    01:00 +27°C° 0 mm 4 m/s 654 mmHg 43%
    02:00 +27°C° 0 mm 3 m/s 654 mmHg 43%
    03:00 +27°C° 0 mm 3 m/s 654 mmHg 43%
    04:00 +27°C° 0 mm 2 m/s 654 mmHg 43%
    05:00 +27°C° 0 mm 3 m/s 655 mmHg 42%
    06:00 +28°C° 0 mm 3 m/s 655 mmHg 41%
    07:00 +28°C° 0 mm 4 m/s 656 mmHg 40%
    08:00 +29°C° 0 mm 4 m/s 656 mmHg 37%
    09:00 +30°C° 0 mm 4 m/s 656 mmHg 34%
    10:00 +32°C° 0 mm 5 m/s 657 mmHg 31%
    11:00 +33°C° 0 mm 5 m/s 656 mmHg 30%
    12:00 +33°C° 0 mm 5 m/s 656 mmHg 29%
    13:00 +34°C° 0 mm 6 m/s 655 mmHg 28%
    14:00 +33°C° 0 mm 5 m/s 655 mmHg 27%
    15:00 +33°C° 0 mm 5 m/s 655 mmHg 27%
    16:00 +33°C° 0 mm 5 m/s 655 mmHg 27%
    17:00 +32°C° 0 mm 5 m/s 655 mmHg 32%
    18:00 +29°C° 0 mm 6 m/s 655 mmHg 38%
    19:00 +28°C° 0 mm 6 m/s 655 mmHg 43%
    20:00 +28°C° 0 mm 5 m/s 655 mmHg 44%
    21:00 +27°C° 0 mm 4 m/s 655 mmHg 44%
    22:00 +27°C° 0 mm 3 m/s 655 mmHg 45%
    23:00 +27°C° 0 mm 3 m/s 655 mmHg 45%

    24 Outubro, Terça-feira

    Tempo Temperatura Precipitação Vento Pressão Humidade
    00:00 +26°C° 0 mm 3 m/s 654 mmHg 45%
    01:00 +26°C° 0 mm 3 m/s 654 mmHg 45%
    02:00 +26°C° 0 mm 2 m/s 654 mmHg 47%
    03:00 +25°C° 0 mm 1 m/s 654 mmHg 49%
    04:00 +25°C° 0 mm 1 m/s 653 mmHg 50%
    05:00 +26°C° 0 mm 1 m/s 654 mmHg 48%
    06:00 +26°C° 0 mm 2 m/s 655 mmHg 45%
    07:00 +27°C° 0 mm 2 m/s 655 mmHg 43%
    08:00 +29°C° 0 mm 2 m/s 656 mmHg 38%
    09:00 +31°C° 0 mm 2 m/s 656 mmHg 34%
    10:00 +32°C° 0 mm 1 m/s 656 mmHg 29%
    11:00 +33°C° 0 mm 1 m/s 655 mmHg 26%
    12:00 +34°C° 0 mm 1 m/s 655 mmHg 24%
    13:00 +35°C° 0 mm 1 m/s 654 mmHg 22%
    14:00 +35°C° 0,1 mm 1 m/s 654 mmHg 23%
    15:00 +35°C° 0,1 mm 2 m/s 654 mmHg 23%
    16:00 +35°C° 0,1 mm 2 m/s 653 mmHg 24%
    17:00 +34°C° 0 mm 2 m/s 654 mmHg 26%
    18:00 +32°C° 0 mm 2 m/s 654 mmHg 28%
    19:00 +32°C° 0 mm 1 m/s 654 mmHg 29%
    20:00 +31°C° 0 mm 1 m/s 654 mmHg 30%
    21:00 +31°C° 0 mm 1 m/s 654 mmHg 32%
    22:00 +30°C° 0 mm 1 m/s 655 mmHg 33%
    23:00 +29°C° 0,1 mm 2 m/s 654 mmHg 36%

    25 Outubro, Quarta-feira

    Tempo Temperatura Precipitação Vento Pressão Humidade
    00:00 +29°C° 0,1 mm 2 m/s 654 mmHg 38%
    01:00 +28°C° 0,1 mm 3 m/s 654 mmHg 41%
    02:00 +28°C° 0,5 mm 3 m/s 654 mmHg 43%
    03:00 +27°C° 0,5 mm 3 m/s 654 mmHg 45%
    04:00 +26°C° 0,5 mm 3 m/s 654 mmHg 48%
    05:00 +26°C° 0,1 mm 3 m/s 654 mmHg 48%
    06:00 +26°C° 0,1 mm 4 m/s 655 mmHg 47%
    07:00 +26°C° 0,1 mm 4 m/s 655 mmHg 47%
    08:00 +28°C° 0 mm 4 m/s 655 mmHg 43%
    09:00 +29°C° 0 mm 3 m/s 655 mmHg 38%
    10:00 +31°C° 0 mm 3 m/s 655 mmHg 33%
    11:00 +33°C° 0 mm 3 m/s 655 mmHg 31%
    12:00 +34°C° 0 mm 2 m/s 655 mmHg 28%
    13:00 +35°C° 0 mm 2 m/s 654 mmHg 25%
    14:00 +33°C° 0,6 mm 4 m/s 654 mmHg 31%
    15:00 +32°C° 0,6 mm 5 m/s 653 mmHg 36%
    16:00 +29°C° 0,6 mm 7 m/s 653 mmHg 42%
    17:00 +28°C° 0,4 mm 7 m/s 653 mmHg 45%
    18:00 +27°C° 0,4 mm 7 m/s 653 mmHg 49%
    19:00 +26°C° 0,4 mm 7 m/s 653 mmHg 53%
    20:00 +26°C° 0,8 mm 6 m/s 653 mmHg 53%
    21:00 +26°C° 0,8 mm 5 m/s 653 mmHg 53%
    22:00 +26°C° 0,8 mm 4 m/s 654 mmHg 53%
    23:00 +25°C° 0,7 mm 3 m/s 654 mmHg 55%
    Mostrar mais